www.pogodaiklimat.ru

Погода и климат >> Архив погоды >> Россия >> Волгоградская область >> Иловля


ПОГОДА в Иловле

  • Прогноз погоды в Иловле
  • Монитор погоды в Иловле

АРХИВ ПОГОДЫ в Иловле

Время (UTC), дата Ветер
(напр.,м/с)
 
Видим.   Явления Облачность Т
(С)
Тd
(С)
f
(%)
Тe
(С)
Тes
(С)
Комфортность P
(гПа)
Po
(гПа)
Тmin
(С)
Tmax
(С)
R
(мм)
R24
(мм)
S
(см)
18 11.08 СЗ 1 10 км 3/0
[Ci fib]
+17.9 +7.9 52 +19 +19 1013.3 1008.0
21 11.08 С 1 10 км 3/0
[Ci fib]
+14.0 +8.2 68 +14 +14 1014.2 1008.9
00 12.08 З 1 10 км 10/0
[Ac und]
+14.0 +9.0 72 +14 +14 1014.5 1009.2
03 12.08 З 1 10 км 8/0
[Ac trans Ci fib]
+12.7 +9.2 79 +13 +13 1015.4 1010.0 +12.4
06 12.08 СЗ 3 10 км 8/3 1000 м
[Cu hum Ac trans Cs]
+19.5 +9.0 51 +21 +24 комфорт 1015.8 1010.6
09 12.08 СЗ 4 10 км 4/4 1000 м
[Cu med, cong]
+22.9 +5.4 32 +23 +29 комфорт 1015.7 1010.5
12 12.08 СЗ 4
{11}
10 км 5/5 1000 м
[Cu med, cong]
+24.5 +4.2 27 +24 +27 комфорт 1015.3 1010.2
15 12.08 СЗ 4
{12}
10 км ясно +23.3 +2.8 26 +23 +23 комфорт 1015.7 1010.5 +24.5
18 12.08 штиль 0 10 км ясно +16.6 +4.4 44 +17 +17 1016.8 1011.5
21 12.08 штиль 0 10 км ясно +10.9 +5.3 68 +10 +10 1017.5 1012.1
00 13.08 штиль 0 10 км ясно +9.4 +5.3 76 +9 +9 1018.3 1012.8
03 13.08 З 2 10 км 3/0
[Ci fib]
+10.6 +5.8 72 +9 +10 1019.1 1013.6 +8.2
06 13.08 СЗ 3 10 км 1/0
[Ci fib]
+20.9 +4.7 35 +22 +29 комфорт 1019.0 1013.8
09 13.08 С 5-10
{10}
10 км 3/1 1000 м
[Cu hum Ci fib]
+25.1 +5.5 28 +25 +31 комфорт 1018.0 1012.8
12 13.08 СЗ 4
{11}
10 км 5/3 1000 м
[Cu hum Ci fib]
+27.0 +6.9 28 +27 +31 жарко 1016.9 1011.7
15 13.08 С 3
{10}
10 км 10/0
[Cs]
+26.2 +7.1 30 +26 +27 жарко 1016.4 1011.3 +27.3
18 13.08 штиль 0 10 км 4/0
[Ci fib]
+17.7 +10.3 62 +18 +18 1017.5 1012.2
21 13.08 штиль 0 10 км ясно +13.9 +9.6 75 +14 +14 1017.9 1012.5
00 14.08 штиль 0 10 км ясно +11.9 +9.1 83 +11 +11 1017.6 1012.2
03 14.08 штиль 0 10 км 3/0
[Ac trans]
+14.0 +9.2 73 +14 +14 1018.1 1012.7 +11.0
06 14.08 ЮЗ 1 10 км ясно +25.4 +10.0 38 +26 +36 жарко 1017.4 1012.3
09 14.08 З 2 10 км 3/0
[Ci fib]
+30.8 +9.4 27 +30 +44 жарко 1015.5 1010.4
12 14.08 З 2 10 км ясно +32.8 +9.6 24 +32 +41 жарко 1014.0 1009.0
15 14.08 З 2 10 км 3/0
[Ci fib]
+32.1 +10.6 27 +32 +33 жарко 1013.4 1008.4 +33.4
18 14.08 Ю 1 10 км 4/0
[Ci fib]
+23.6 +13.8 54 +26 +26 жарко 1014.3 1009.1
21 14.08 Ю 1 10 км 3/0
[Ci fib]
+22.3 +12.1 52 +25 +25 комфорт 1014.2 1009.0
00 15.08 штиль 0 10 км 3/0
[Ci fib]
+18.5 +12.7 69 +19 +19 1014.1 1008.9
03 15.08 штиль 0 10 км ясно +18.6 +12.2 66 +19 +20 1014.8 1009.6 +17.5
06 15.08 З 1 10 км ясно +29.7 +10.5 30 +30 +40 жарко 1014.7 1009.6
09 15.08 З 1 10 км 1/1 1000 м
[Cu hum]
+34.0 +12.5 27 +34 +49 очень
жарко
1013.6 1008.6
12 15.08 ЮВ 2 10 км 5/5 1000 м
[Cu hum]
+35.8 +12.7 25 +36 +40 очень
жарко
1011.8 1006.9
15 15.08 ЮВ 3 10 км 5/3 600 м
[Sc diur, vesp Ci fib]
+33.8 +13.3 29 +35 +35 очень
жарко
1011.1 1006.1 +36.1
18 15.08 В 2 10 км ясно +28.4 +12.3 37 +30 +30 жарко 1012.2 1007.1
21 15.08 З 1 10 км ясно +25.2 +12.3 45 +27 +27 жарко 1012.3 1007.1
00 16.08 В 1 н/о н/о +20.3 +12.6 61 +23 +23 комфорт 1012.2 1007.0
03 16.08 штиль 0 10 км 3/0
[Ci fib]
+20.0 +12.7 63 +22 +22 комфорт 1012.5 1007.3 +17.7
06 16.08 Ю 3 10 км 10/0
[Cs]
+25.9 +6.9 30 +26 +31 жарко 1012.6 1007.5
09 16.08 ЮВ 4 10 км 10/0
[Ac trans Cs]
+29.2 +7.1 25 +28 +34 жарко 1011.4 1006.4
12 16.08 ЮВ 4 10 км 10/0
[Ac trans Cs]
+31.5 +7.8 23 +30 +34 жарко 1010.0 1005.0
15 16.08 ЮВ 2 10 км 10/5 600 м
[Sc Ac trans Cs]
+31.0 +7.7 23 +30 +30 жарко 1008.9 1003.9 +32.7
18 16.08 В 2 10 км 10/5 600 м
[Sc Cs]
+26.8 +9.3 33 +27 +27 жарко 1009.4 1004.3
21 16.08 ЮВ 3 10 км 10/8 600 м
[Sc Ac und]
+25.1 +8.9 36 +26 +26 жарко 1009.4 1004.3
00 17.08 ЮВ 1 10 км 10/0
[Cs]
+22.9 +6.9 36 +24 +24 комфорт 1010.6 1005.5
03 17.08 ЮВ 1 10 км 10/8 600 м
[Sc Ac und]
+20.7 +9.3 48 +23 +23 комфорт 1010.6 1005.4 +20.7
06 17.08 Ю 3 10 км 10/4 600 м
[Sc Ac trans Ci fib]
+27.9 +6.6 26 +27 +29 жарко 1010.0 1004.9
09 17.08 Ю 5-11
{11}
10 км 5/0
[Ac trans Ci fib]
+31.2 +5.5 20 +29 +35 жарко 1009.4 1004.3
12 17.08 ЮВ 5
{11}
10 км 8/4 600 м
[Sc Ac trans]
+31.8 +5.4 19 +30 +31 жарко 1008.3 1003.3
15 17.08 Ю 5
{12}
10 км 10/3 300 м
[Sc Ac trans Ci fib]
+30.8 +7.0 23 +30 +30 жарко 1008.2 1003.2 +32.5
18 17.08 штиль 0 10 км 4/0
[Ci fib]
+23.4 +11.5 47 +26 +26 жарко 1009.1 1003.9
21 17.08 Ю 2 10 км ясно +22.5 +10.1 45 +24 +24 комфорт 1009.7 1004.5
00 18.08 Ю 1 10 км ясно +21.1 +13.8 63 +24 +24 комфорт 1010.1 1005.0
03 18.08 штиль 0 10 км 4/3 600 м
[Sc Ac trans]
+19.8 +13.6 67 +21 +22 комфорт 1010.7 1005.5 +19.0
06 18.08 ЮВ 2 10 км 10/3 600 м
[Sc Ac trans Cs]
+27.0 +14.9 47 +30 +32 душно 1011.2 1006.2
09 18.08 Ю 3 10 км 5/0
[Ac trans Ci fib]
+33.0 +3.3 15 +30 +39 жарко 1010.2 1005.3
12 18.08 ЮВ 3
{11}
10 км 8/3 600 м
[Cb calv Ac trans Cs]
+32.6 +4.3 17 +30 +33 жарко 1010.7 1005.7
15 18.08 С 2
{10}
10 км гроза, ливневой дождь 10/10 300 м
[Cb cap]
+22.7 +17.2 71 +28 +28 душно 1011.1 1005.9 +34.3 3

 

Местоположение метеостанции Иловля (Волгоградская область, Россия): широта 49.30 долгота 44.00 высота над уровнем моря 44 м.

В архиве по умолчанию представлена погода в Иловле за последнюю неделю. Архивные данные за месяц целиком и за предыдущие месяцы, начиная с января 2011 года, Вы можете получить, выбрав интересующий диапазон дат из раскрывающегося списка и нажав кнопку "Ввод!".


*Определитесь, кто Вы:
робот инопланетянин человек

Внимание! Время в таблицах - всемирное. Для получения местного времени необходимо прибавить поправку, которая равна 3 ч.

Смотрите также архив погоды в соседних городах и на ближайших метеорологических станциях:

Погода в Фролове (Волгоградская область, Россия) (60 км)
Погода в Волгограде (Волгоградская область, Россия) (64 км)
Погода в Ольховке (Волгоградская область, Россия) (75 км)
Погода в Волгограде город (Волгоградская область, Россия) (77 км)
Погода в Калаче-на-Дону (Волгоградская область, Россия) (79 км)
Погода в Серафимовиче (Волгоградская область, Россия) (97 км)
Погода в Михайловке (Волгоградская область, Россия) (101 км)
Погода в Даниловке (Волгоградская область, Россия) (119 км)
Погода в Нижнем Чире (Волгоградская область, Россия) (126 км)
Погода в Камышине (Волгоградская область, Россия) (131 км)

Пояснения к столбцам:

Ветер - указаны скорость ветра в м/с - средняя за 10 мин, порывы в срок и между сроками (в фигурных скобках) и направление, откуда дует ветер: С - северный, СВ - северо-восточный, В - восточный, ЮВ - юго-восточный, Ю - южный, ЮЗ - юго-западный, З - западный, СЗ - северо-западный.
Видимость - горизонтальная дальность видимости в метрах или километрах. При видимости от 1 до 10 км при отсутствии осадков обычно наблюдается дымка, при ухудшении видимости до 1 км и менее - туман. В сухую погоду видимость может ухудшаться дымом, пылью или мглою.
Явления - указаны атмосферные явления, наблюдавшиеся в срок или в последний час перед сроком; фигурными скобками обозначены явления, наблюдавшиеся между сроками (за 1-3 часа до срока); квадратными скобками обозначены град или гололедные отложения с указанием их диаметра в мм.
Облачность - указаны через наклонную черту общая и нижняя облачность в баллах и высота нижней границы облаков в метрах; квадратными скобками обозначены формы облаков: Ci - перистые, Cs - перисто-слоистые, Cc - перисто-кучевые, Ac - высококучевые, As - высокослоистые, Sc - слоисто-кучевые, Ns - слоисто-дождевые, Cu - кучевые, Cb - кучево-дождевые. Подробнее классификацию облаков см. в Атласе облаков (PDF).
T - Температура воздуха - температура, измеренная на высоте 2 м над землей.
Td - Температура точки росы - температура, при понижении до которой содержащийся в воздухе водяной пар достигнет насыщения.
f - Относительная влажность воздуха - влажноcть воздуха, измеренная на высоте 2 м над землей.
Te - Эффективная температура - температура, которую ощущает одетый по сезону человек в тени. Характеристика душности погоды. При расчете учитывается влияние влажности воздуха и скорости ветра на теплоощущения человека.
Tes - Эффективная температура на солнце - температура, которую ощущает человек, с поправкой на солнечный нагрев. Характеристика знойности погоды. Зависит от высоты солнца над горизонтом, облачности и скорости ветра. Ночью, в пасмурную погоду, а также при ветре 12 м/с и более поправка равна нулю.
P - Атмосферное давление - приведенное к уровню моря атмосферное давление.
Po - Атмосферное давление - измеренное на уровне метеостанции атмосферное давление.
Tmin - Минимальная температура - минимум температуры воздуха на высоте 2 м над землей.
Tmax - Максимальная температура - максимум температуры воздуха на высоте 2 м над землей.
R - Количество осадков - Количество выпавших осадков за период времени, мм. При наведении курсора мыши на число - период времени, за который выпало указанное количество осадков.
R24 - Количество осадков - Количество выпавших осадков за 24 часа, мм.
S - Снежный покров - Высота снежного покрова, см. При наведении курсора мыши на число - состояние снежного покрова и степень покрытия местности в баллах.